Regional Weather Roundup
Issued by NWS Kansas City/Pleasant Hill, MO

Home | Current Version | Previous Version | Graphics & Text | Print | Product List | Glossary Off
Versions: 1 2 3 4 5 6 7 8 9 10 11 12 13 14 15 16 17 18 19 20 21 22 23 24 25 26 27 28 29 30 31 32 33 34 35 36 37 38 39 40 41 42 43 44 45 46 47 48 49 50

000
ASUS43 KEAX 012304
RWREAX

WEATHER ROUNDUP FOR EASTERN KANSAS AND NORTHWEST MISSOURI
NATIONAL WEATHER SERVICE KANSAS CITY/PLEASANT HILL MO
600 PM CDT WED JUL 01 2015

KSZ040-057-103>105-MOZ028-029-037-043-020000-
...KANSAS CITY METROPOLITAN AREA...

CITY           SKY/WX    TMP DP  RH WIND       PRES   REMARKS
K.C. INTL      PTSUNNY   84  74  71 SE6       29.82S HX  91
K.C. DOWNTOWN  PTSUNNY   86  75  69 S6        29.79F HX  95
LEES SUMMIT    PTSUNNY   82  74  76 SE8       29.82F
OLATHE - IXD   MOSUNNY   86  76  71 SE13      29.81F HX  96
OLATHE - OJC   MOSUNNY   85  76  74 S12       29.80F HX  94
LAWRENCE       MOSUNNY   88  76  67 SE9       29.79S HX  99

$$

MOZ001>008-011>017-020>025-030>033-038>040-044>046-053-054-020000-
...NORTHERN AND CENTRAL MISSOURI...

CITY           SKY/WX    TMP DP  RH WIND       PRES   REMARKS
ST. JOSEPH     PTSUNNY   84  74  71 NE6       29.82S HX  91
MOSBY          MOCLDY    82  72  69 SE3       29.82S
HARRISONVILLE  PTSUNNY   86  77  74 SE6       29.83F HX  97
WHITEMAN AFB   PTSUNNY   82  74  77 S5        29.83S
CLINTON        PTSUNNY   82  77  83 S3        29.83F HX  91
SEDALIA        PTSUNNY   83  73  72 S6        29.85F
WARSAW         FAIR      82  73  74 S5        29.84F
CHILLICOTHE      N/A     83  73  72 S3        29.84F
KIRKSVILLE     CLOUDY    81  69  67 VRB5      29.88S

$$

MOZ041-047>049-056>058-063>065-088>090-097-020000-
...EASTERN AND SOUTHERN MISSOURI...

CITY           SKY/WX    TMP DP  RH WIND       PRES   REMARKS
ST. LOUIS INTL PTSUNNY   84  68  58 CALM      29.86S
SPIRIT OF STL  PTSUNNY   82  73  74 SW5       29.86R
COLUMBIA       PTSUNNY   80  72  76 SE5       29.86F
JEFFERSON CITY PTSUNNY   81  71  71 S7        29.85S
MEXICO         PTSUNNY   81  75  83 CALM      29.88
ROLLA          PTSUNNY   79  72  79 SE6       29.87F
LEBANON        SUNNY     82  72  69 S10       29.88S
OSAGE BEACH    MOSUNNY   84  72  65 S3        29.86S
SPRINGFIELD    MOSUNNY   84  74  71 S17       29.86F HX  91
BRANSON        PTSUNNY   81  72  74 SE10      29.91F
NEVADA         MOSUNNY   86  75  70 S14       29.82S HX  95
JOPLIN         CLOUDY    85  74  69 S15       29.84R HX  92
WEST PLAINS    PTSUNNY   79  72  79 S7        29.90F
MALDEN         MOSUNNY   86  70  58 SW9       29.91F HX  90

$$

IAZ060-094-KSZ022-034>040-054-083-096-NEZ052-066-093-020000-
...KANSAS...SOUTHEAST NEBRASKA AND IOWA...

CITY           SKY/WX    TMP DP  RH WIND       PRES   REMARKS
TOPEKA         SUNNY     91  68  46 SW6       29.78S HX  95
MANHATTAN      MOSUNNY   95  65  37 VRB5      29.77S HX  97
EMPORIA        MOSUNNY   91  71  51 SE3       29.78F HX  97
CHANUTE        CLOUDY    87  73  62 S20G28    29.78F HX  94
WICHITA        PTSUNNY   97  68  38 SW5       29.75F HX 102
OMAHA          MOSUNNY   83  69  62 E14       29.86S
LINCOLN        PTSUNNY   85  70  60 E10       29.84S
FALLS CITY     PTSUNNY   84  73  69 E7        29.82S HX  90
LAMONI         CLOUDY    79  70  74 NE8       29.88S
DES MOINES     CLOUDY    75  62  64 NE12      29.91S

$$



USA.gov is the U.S. government's official web portal to all federal, state and local government web resources and services.